| time (UTC) | temp F | wind direction | speed MPH | gust MPH | rain 1hr in | rain 24hr in | rain mn in | humidity % | barometer mb |
| 20260902220929 | 94 | 13 | 1.0 | 1.0 | 0.00 | 0.00 | 0.00 | 62 | 4252.0 |
| 20260902215924 | 94 | 336 | 2.0 | 2.0 | 0.00 | 0.00 | 0.00 | 63 | 4252.0 |
| 20260902214921 | 95 | 5 | 1.0 | 1.0 | 0.00 | 0.00 | 0.00 | 65 | 4251.9 |
| 20260902213920 | 95 | 356 | 2.0 | 2.0 | 0.00 | 0.00 | 0.00 | 65 | 4252.4 |
| 20260902212921 | 96 | 10 | 2.0 | 2.0 | 0.00 | 0.00 | 0.00 | 62 | 4252.4 |
| 20260902211919 | 96 | 51 | 1.0 | 1.0 | 0.00 | 0.00 | 0.00 | 59 | 4252.5 |
| 20260902210916 | 96 | 358 | 3.0 | 3.0 | 0.00 | 0.00 | 0.00 | 60 | 4252.3 |
| 20260902205914 | 96 | 332 | 2.0 | 2.0 | 0.00 | 0.00 | 0.00 | 58 | 4252.6 |
| 20260902204911 | 94 | 41 | 1.0 | 2.0 | 0.00 | 0.00 | 0.00 | 60 | 4252.4 |
| 20260902203906 | 94 | 41 | 0.0 | 1.0 | 0.00 | 0.00 | 0.00 | 56 | 4252.5 |
| 20260902202901 | 94 | 11 | 1.0 | 2.0 | 0.00 | 0.00 | 0.00 | 66 | 4252.8 |
| 20260902201859 | 97 | 0 | 2.0 | 2.0 | 0.00 | 0.00 | 0.00 | 57 | 4252.9 |
| 20260902200859 | 96 | 354 | 3.0 | 3.0 | 0.00 | 0.00 | 0.00 | 59 | 4253.1 |
| 20260902195856 | 96 | 39 | 3.0 | 3.0 | 0.00 | 0.00 | 0.00 | 60 | 4252.9 |
| 20260902194850 | 96 | 6 | 3.0 | 3.0 | 0.00 | 0.00 | 0.00 | 55 | 4253.2 |
| 20260902193845 | 97 | 342 | 1.0 | 1.0 | 0.00 | 0.00 | 0.00 | 53 | 4253.4 |
| 20260902192846 | 96 | 342 | 2.0 | 2.0 | 0.00 | 0.00 | 0.00 | 59 | 4253.5 |
| 20260902191844 | 96 | 348 | 2.0 | 2.0 | 0.00 | 0.00 | 0.00 | 54 | 4253.8 |
| 20260902190841 | 97 | 340 | 2.0 | 2.0 | 0.00 | 0.00 | 0.00 | 56 | 4253.7 |
| 20260902185837 | 96 | 351 | 3.0 | 3.0 | 0.00 | 0.00 | 0.00 | 58 | 4253.8 |
| 20260902184834 | 94 | 26 | 0.0 | 0.0 | 0.00 | 0.00 | 0.00 | 55 | 4253.7 |
| 20260902183830 | 95 | 0 | 2.0 | 2.0 | 0.00 | 0.00 | 0.00 | 57 | 4254.2 |
| 20260902182828 | 96 | 352 | 3.0 | 3.0 | 0.00 | 0.00 | 0.00 | 58 | 4254.1 |
| 20260902181826 | 96 | 350 | 2.0 | 2.0 | 0.00 | 0.00 | 0.00 | 57 | 4254.3 |
| 20260902180826 | 95 | 3 | 3.0 | 3.0 | 0.00 | 0.00 | 0.00 | 59 | 4254.4 |
| 20260902175824 | 95 | 6 | 2.0 | 2.0 | 0.00 | 0.00 | 0.00 | 56 | 4254.4 |
| 20260902174820 | 95 | 6 | 2.0 | 2.0 | 0.00 | 0.00 | 0.00 | 58 | 4254.6 |
| 20260902173818 | 95 | 356 | 2.0 | 2.0 | 0.00 | 0.00 | 0.00 | 58 | 4254.7 |
| 20260902172818 | 93 | 19 | 1.0 | 1.0 | 0.00 | 0.00 | 0.00 | 61 | 4255.0 |
| 20260902171814 | 94 | 13 | 2.0 | 2.0 | 0.00 | 0.00 | 0.00 | 61 | 4255.0 |
| 20260902170811 | 93 | 357 | 1.0 | 2.0 | 0.00 | 0.00 | 0.00 | 64 | 4255.2 |
| 20260902165808 | 94 | 4 | 2.0 | 2.0 | 0.00 | 0.00 | 0.00 | 66 | 4255.4 |
| 20260902164808 | 93 | 16 | 2.0 | 2.0 | 0.00 | 0.00 | 0.00 | 67 | 4255.6 |
| 20260902163803 | 93 | 6 | 3.0 | 3.0 | 0.00 | 0.00 | 0.00 | 71 | 4255.6 |
| 20260902162801 | 92 | 0 | 2.0 | 2.0 | 0.00 | 0.00 | 0.00 | 71 | 4255.7 |
| 20260902161756 | 91 | 357 | 3.0 | 3.0 | 0.00 | 0.00 | 0.00 | 75 | 4256.0 |
| 20260902160754 | 91 | 10 | 3.0 | 3.0 | 0.00 | 0.00 | 0.00 | 74 | 4256.0 |
| 20260902155752 | 90 | 20 | 3.0 | 3.0 | 0.00 | 0.00 | 0.00 | 77 | 4255.9 |
| 20260902154752 | 89 | 3 | 2.0 | 2.0 | 0.00 | 0.00 | 0.00 | 76 | 4256.1 |
| 20260902153752 | 89 | 7 | 3.0 | 3.0 | 0.00 | 0.00 | 0.00 | 77 | 4256.1 |
| 20260902152748 | 88 | 12 | 1.0 | 2.0 | 0.00 | 0.00 | 0.00 | 77 | 4256.2 |
| 20260902151744 | 88 | 12 | 1.0 | 2.0 | 0.00 | 0.00 | 0.00 | 77 | 4256.0 |
| 20260902150739 | 87 | 12 | 2.0 | 2.0 | 0.00 | 0.00 | 0.00 | 78 | 4256.1 |
| 20260902145735 | 86 | 12 | 0.0 | 1.0 | 0.00 | 0.00 | 0.00 | 81 | 4255.8 |
| 20260902144731 | 85 | 24 | 2.0 | 2.0 | 0.00 | 0.00 | 0.00 | 82 | 4255.9 |
| 20260902143728 | 84 | 29 | 3.0 | 3.0 | 0.00 | 0.00 | 0.00 | 84 | 4256.0 |
| 20260902142725 | 84 | 15 | 2.0 | 2.0 | 0.00 | 0.00 | 0.00 | 85 | 4256.1 |
| 20260902141721 | 83 | 26 | 1.0 | 2.0 | 0.00 | 0.00 | 0.00 | 86 | 4255.9 |
| 20260902140718 | 82 | 20 | 2.0 | 2.0 | 0.00 | 0.00 | 0.00 | 89 | 4255.8 |
| 20260902135717 | 81 | 19 | 1.0 | 1.0 | 0.00 | 0.00 | 0.00 | 92 | 4256.2 |
| 20260902134712 | 80 | 9 | 2.0 | 2.0 | 0.00 | 0.00 | 0.00 | 93 | 4256.0 |
| 20260902133708 | 80 | 6 | 2.0 | 2.0 | 0.00 | 0.00 | 0.00 | 94 | 4255.8 |
| 20260902132703 | 79 | 15 | 1.0 | 2.0 | 0.00 | 0.00 | 0.00 | 96 | 4255.8 |
| 20260902131700 | 78 | 350 | 2.0 | 2.0 | 0.00 | 0.00 | 0.00 | 97 | 4255.6 |
| 20260902130657 | 78 | 356 | 1.0 | 1.0 | 0.00 | 0.00 | 0.00 | 98 | 4255.8 |
| 20260902125653 | 77 | 359 | 2.0 | 2.0 | 0.00 | 0.00 | 0.00 | 97 | 4255.9 |
| 20260902124651 | 77 | 352 | 2.0 | 2.0 | 0.00 | 0.00 | 0.00 | 98 | 4256.0 |
| 20260902123647 | 77 | 348 | 2.0 | 2.0 | 0.00 | 0.00 | 0.00 | 99 | 4255.8 |
| 20260902122648 | 75 | 222 | 0.0 | 0.0 | 0.00 | 0.00 | 0.00 | 99 | 4255.8 |
| 20260902121644 | 76 | 240 | 1.0 | 1.0 | 0.00 | 0.00 | 0.00 | 99 | 4255.6 |
| 20260902120641 | 76 | 351 | 2.0 | 3.0 | 0.00 | 0.00 | 0.00 | 99 | 4255.5 |
| 20260902115637 | 74 | 265 | 0.0 | 0.0 | 0.00 | 0.00 | 0.00 | 99 | 4255.4 |
| 20260902114635 | 73 | 194 | 0.0 | 0.0 | 0.00 | 0.00 | 0.00 | 99 | 4255.1 |
| 20260902113630 | 72 | 213 | 0.0 | 0.0 | 0.00 | 0.00 | 0.00 | 99 | 4255.0 |
| 20260902112626 | 72 | 222 | 1.0 | 1.0 | 0.00 | 0.00 | 0.00 | 99 | 4255.1 |
| 20260902111625 | 72 | 220 | 1.0 | 1.0 | 0.00 | 0.00 | 0.00 | 99 | 4254.9 |
| 20260902110622 | 72 | 233 | 2.0 | 2.0 | 0.00 | 0.00 | 0.00 | 99 | 4254.6 |
| 20260902105617 | 72 | 218 | 1.0 | 2.0 | 0.00 | 0.00 | 0.00 | 99 | 4254.7 |
| 20260902104613 | 72 | 214 | 1.0 | 2.0 | 0.00 | 0.00 | 0.00 | 99 | 4254.8 |
| 20260902103608 | 71 | 217 | 1.0 | 2.0 | 0.00 | 0.00 | 0.00 | 99 | 4254.2 |
| 20260902102605 | 72 | 224 | 1.0 | 1.0 | 0.00 | 0.00 | 0.00 | 99 | 4254.4 |
| 20260902101603 | 72 | 209 | 1.0 | 1.0 | 0.00 | 0.00 | 0.00 | 99 | 4254.5 |
| 20260902100602 | 72 | 226 | 1.0 | 2.0 | 0.00 | 0.00 | 0.00 | 99 | 4254.5 |
| 20260902095603 | 72 | 218 | 1.0 | 2.0 | 0.00 | 0.00 | 0.00 | 99 | 4254.3 |
| 20260902094557 | 73 | 216 | 1.0 | 1.0 | 0.00 | 0.00 | 0.00 | 99 | 4254.3 |
| 20260902093553 | 73 | 217 | 1.0 | 2.0 | 0.00 | 0.00 | 0.00 | 99 | 4254.3 |
| 20260902092548 | 73 | 222 | 1.0 | 2.0 | 0.00 | 0.00 | 0.00 | 99 | 4254.2 |
| 20260902091544 | 73 | 211 | 1.0 | 1.0 | 0.00 | 0.00 | 0.00 | 99 | 4254.2 |
| 20260902090542 | 73 | 208 | 1.0 | 1.0 | 0.00 | 0.00 | 0.00 | 99 | 4254.2 |
| 20260902085541 | 73 | 216 | 0.0 | 1.0 | 0.00 | 0.00 | 0.00 | 99 | 4254.0 |
| 20260902084539 | 74 | 209 | 0.0 | 1.0 | 0.00 | 0.00 | 0.00 | 99 | 4253.9 |
| 20260902083536 | 74 | 212 | 1.0 | 1.0 | 0.00 | 0.00 | 0.00 | 99 | 4253.9 |
| 20260902082531 | 74 | 216 | 1.0 | 1.0 | 0.00 | 0.00 | 0.00 | 99 | 4253.7 |
| 20260902081530 | 73 | 216 | 1.0 | 1.0 | 0.00 | 0.00 | 0.00 | 99 | 4253.5 |
| 20260902080525 | 74 | 214 | 1.0 | 1.0 | 0.00 | 0.00 | 0.00 | 99 | 4253.6 |
| 20260902075521 | 73 | 204 | 0.0 | 0.0 | 0.00 | 0.00 | 0.00 | 99 | 4253.6 |
| 20260902074518 | 74 | 216 | 0.0 | 0.0 | 0.00 | 0.00 | 0.00 | 99 | 4253.8 |
| 20260902073514 | 74 | 214 | 1.0 | 2.0 | 0.00 | 0.00 | 0.00 | 99 | 4253.7 |
| 20260902072512 | 74 | 219 | 0.0 | 1.0 | 0.00 | 0.00 | 0.00 | 99 | 4253.8 |
| 20260902071507 | 74 | 211 | 1.0 | 1.0 | 0.00 | 0.00 | 0.00 | 98 | 4253.9 |
| 20260902070505 | 75 | 202 | 0.0 | 0.0 | 0.00 | 0.00 | 0.00 | 98 | 4253.9 |
| 20260902065505 | 74 | 210 | 1.0 | 1.0 | 0.00 | 0.00 | 0.00 | 98 | 4253.7 |
| 20260902064501 | 75 | 218 | 1.0 | 1.0 | 0.00 | 0.00 | 0.00 | 97 | 4253.8 |
| 20260902063457 | 75 | 222 | 1.0 | 1.0 | 0.00 | 0.00 | 0.00 | 97 | 4253.6 |
| 20260902062451 | 75 | 209 | 0.0 | 1.0 | 0.00 | 0.00 | 0.00 | 97 | 4253.9 |
| 20260902061447 | 76 | 211 | 1.0 | 1.0 | 0.00 | 0.00 | 0.00 | 96 | 4253.8 |
| 20260902060445 | 76 | 200 | 1.0 | 1.0 | 0.00 | 0.00 | 0.00 | 96 | 4253.8 |
| 20260902055443 | 76 | 202 | 1.0 | 1.0 | 0.00 | 0.00 | 0.00 | 96 | 4253.8 |
| 20260902054438 | 76 | 207 | 1.0 | 1.0 | 0.00 | 0.00 | 0.00 | 96 | 4253.8 |
| 20260902053435 | 76 | 207 | 0.0 | 1.0 | 0.00 | 0.00 | 0.00 | 96 | 4253.9 |
| 20260902052434 | 77 | 201 | 0.0 | 0.0 | 0.00 | 0.00 | 0.00 | 96 | 4253.9 |
| 20260902051430 | 77 | 201 | 0.0 | 1.0 | 0.00 | 0.00 | 0.00 | 94 | 4253.8 |
| 20260902050429 | 78 | 201 | 0.0 | 0.0 | 0.00 | 0.00 | 0.00 | 96 | 4253.9 |
| 20260902045425 | 78 | 201 | 0.0 | 0.0 | 0.00 | 0.00 | 0.00 | 96 | 4253.9 |
| 20260902044422 | 78 | 201 | 0.0 | 0.0 | 0.00 | 0.00 | 0.00 | 95 | 4253.9 |
| 20260902043419 | 78 | 202 | 0.0 | 1.0 | 0.00 | 0.00 | 0.00 | 94 | 4254.1 |
| 20260902042419 | 78 | 202 | 1.0 | 1.0 | 0.00 | 0.00 | 0.00 | 92 | 4254.0 |
| 20260902041415 | 78 | 202 | 1.0 | 1.0 | 0.00 | 0.00 | 0.00 | 92 | 4254.0 |
| 20260902040414 | 79 | 203 | 1.0 | 1.0 | 0.00 | 0.00 | 0.00 | 89 | 4254.0 |
| 20260902035409 | 80 | 204 | 0.0 | 1.0 | 0.00 | 0.00 | 0.00 | 86 | 4254.0 |
| 20260902034409 | 79 | 205 | 0.0 | 0.0 | 0.00 | 0.00 | 0.00 | 87 | 4254.1 |
| 20260902033408 | 79 | 207 | 1.0 | 1.0 | 0.00 | 0.00 | 0.00 | 88 | 4254.1 |
| 20260902032408 | 79 | 210 | 0.0 | 1.0 | 0.00 | 0.00 | 0.00 | 88 | 4254.2 |
| 20260902031404 | 79 | 219 | 1.0 | 1.0 | 0.00 | 0.00 | 0.00 | 87 | 4254.3 |
| 20260902030400 | 79 | 213 | 2.0 | 2.0 | 0.00 | 0.00 | 0.00 | 86 | 4254.2 |
| 20260902025355 | 80 | 220 | 1.0 | 1.0 | 0.00 | 0.00 | 0.00 | 85 | 4254.0 |
| 20260902024351 | 80 | 206 | 1.0 | 1.0 | 0.00 | 0.00 | 0.00 | 85 | 4253.8 |
| 20260902023348 | 81 | 213 | 1.0 | 1.0 | 0.00 | 0.00 | 0.00 | 85 | 4253.9 |
| 20260902022342 | 81 | 223 | 2.0 | 2.0 | 0.00 | 0.00 | 0.00 | 83 | 4253.7 |
| 20260902021338 | 82 | 207 | 1.0 | 1.0 | 0.00 | 0.00 | 0.00 | 82 | 4253.6 |
| 20260902020336 | 83 | 206 | 0.0 | 0.0 | 0.00 | 0.00 | 0.00 | 81 | 4253.6 |
| 20260902015332 | 84 | 194 | 0.0 | 0.0 | 0.00 | 0.00 | 0.00 | 86 | 4253.4 |
| 20260902014330 | 84 | 194 | 0.0 | 0.0 | 0.00 | 0.00 | 0.00 | 79 | 4253.4 |
| 20260902013330 | 85 | 219 | 0.0 | 0.0 | 0.00 | 0.00 | 0.00 | 79 | 4253.6 |
| 20260902012327 | 85 | 220 | 0.0 | 0.0 | 0.00 | 0.00 | 0.00 | 76 | 4253.3 |
| 20260902011323 | 85 | 220 | 0.0 | 1.0 | 0.00 | 0.00 | 0.00 | 76 | 4253.3 |
| 20260902010323 | 86 | 220 | 0.0 | 0.0 | 0.00 | 0.00 | 0.00 | 77 | 4253.2 |
| 20260902005323 | 87 | 220 | 0.0 | 0.0 | 0.00 | 0.00 | 0.00 | 73 | 4253.2 |
| 20260902004319 | 87 | 220 | 1.0 | 1.0 | 0.00 | 0.00 | 0.00 | 70 | 4253.0 |
| 20260902003314 | 88 | 230 | 0.0 | 0.0 | 0.00 | 0.00 | 0.00 | 68 | 4253.0 |
| 20260902002310 | 89 | 230 | 0.0 | 0.0 | 0.00 | 0.00 | 0.00 | 66 | 4252.9 |
| 20260902001306 | 89 | 230 | 1.0 | 1.0 | 0.00 | 0.00 | 0.00 | 64 | 4252.9 |
| 20260902000306 | 90 | 245 | 1.0 | 1.0 | 0.00 | 0.00 | 0.00 | 64 | 4252.9 |
| 20260901235307 | 90 | 241 | 1.0 | 1.0 | 0.00 | 0.00 | 0.00 | 63 | 4253.1 |
| 20260901234257 | 91 | 237 | 1.0 | 1.0 | 0.00 | 0.00 | 0.00 | 61 | 4253.0 |
| 20260901233253 | 92 | 236 | 1.0 | 1.0 | 0.00 | 0.00 | 0.00 | 60 | 4253.3 |
| 20260901232249 | 93 | 231 | 1.0 | 1.0 | 0.00 | 0.00 | 0.00 | 59 | 4253.3 |
| 20260901231247 | 94 | 230 | 1.0 | 1.0 | 0.00 | 0.00 | 0.00 | 56 | 4253.4 |
| 20260901230242 | 96 | 236 | 3.0 | 3.0 | 0.00 | 0.00 | 0.00 | 51 | 4253.2 |
| 20260901225238 | 97 | 258 | 1.0 | 1.0 | 0.00 | 0.00 | 0.00 | 53 | 4253.2 |
| 20260901224236 | 98 | 293 | 0.0 | 1.0 | 0.00 | 0.00 | 0.00 | 52 | 4253.2 |
| 20260901223232 | 96 | 241 | 1.0 | 2.0 | 0.00 | 0.00 | 0.00 | 57 | 4253.0 |
| 20260901222230 | 93 | 355 | 1.0 | 1.0 | 0.00 | 0.00 | 0.00 | 61 | 4253.1 |